Location: Auckland
(36.8670°S, 174.7670°E)
Time: 01:39:43
(UTC+12:00)

Transit 2A - Visible Passes

Search period start: 19 July 2019 00:00
Search period end: 29 July 2019 00:00
Orbit: 594 x 965 km, 66.7° (Epoch: 17 July)

Date Brightness Start Highest point End Pass type
(mag) Time Alt. Az. Time Alt. Az. Time Alt. Az.
19 Jul 8.4 04:49:48 10° NE 04:52:22 16° ENE 04:55:01 10° ESE visible
19 Jul 5.9 06:30:57 10° NW 06:35:03 41° WSW 06:39:23 10° SSE visible
20 Jul 5.4 05:56:36 10° NW 06:00:53 66° WSW 06:05:26 10° SSE visible
21 Jul 5.6 05:25:46 51° N 05:26:48 76° ENE 05:31:21 10° SSE visible
22 Jul 7.0 04:54:05 35° ESE 04:54:05 35° ESE 04:57:06 10° SE visible
22 Jul 7.1 06:34:40 15° WSW 06:36:12 17° SW 06:39:14 10° S visible
23 Jul 8.4 04:21:57 13° SE 04:21:57 13° SE 04:22:39 10° SE visible
23 Jul 6.8 06:02:30 24° SW 06:02:30 24° SW 06:05:42 10° S visible
24 Jul 7.3 05:30:02 21° S 05:30:02 21° S 05:31:55 10° SSE visible
25 Jul 8.1 04:57:24 13° SSE 04:57:24 13° SSE 04:58:00 10° SSE visible
